{"data":{"norad_id":69712,"epoch":"2026-09-19T08:01:52.944384Z","epoch_age_seconds":122316,"freshness":"FRESH","line1":"1 69712U 26147J   26262.33464056  .00013909  00000+0  43223-3 0  9992","line2":"2 69712  97.2853 298.6888 0000882  89.1306 271.0037 15.33455428 14055","mean_motion":15.33455428,"eccentricity":8.82e-5,"inclination_deg":97.2853,"raan_deg":298.6888,"arg_perigee_deg":89.1306,"mean_anomaly_deg":271.0037,"bstar":0.00043223,"rev_number":1405,"period_min":93.905566063835,"perigee_km":464.9085384078,"apogee_km":466.11575811755,"semimajor_km":6843.6491482627,"source":"CELESTRAK","updated_at":"2026-09-20T09:00:44.258978Z"}}